Location: Ceske Budejovice
(48.9830°N, 14.4670°E)
Time: 12:36:30
(UTC+02:00)

ISS - Visible Passes

Search period start: 21 July 2017 00:00
Search period end: 31 July 2017 00:00
Orbit: 400 x 408 km, 51.6° (Epoch: 21 July)

Date Brightness Start Highest point End Pass type
(mag) Time Alt. Az. Time Alt. Az. Time Alt. Az.
21 Jul -2.3 00:29:21 26° ENE 00:29:21 26° ENE 00:30:57 10° ENE visible
21 Jul -3.0 02:01:57 16° WNW 02:04:19 51° N 02:07:31 10° ENE visible
21 Jul -3.6 03:37:46 10° WNW 03:41:02 72° NNE 03:44:17 10° E visible
21 Jul -1.4 23:38:11 13° ENE 23:38:11 13° ENE 23:38:37 10° ENE visible
22 Jul -3.3 01:10:45 33° WNW 01:11:57 58° N 01:15:11 10° ENE visible
22 Jul -3.2 02:45:28 10° WNW 02:48:41 57° N 02:51:55 10° E visible
22 Jul -3.6 04:22:00 10° WNW 04:25:10 48° SSW 04:28:20 10° SE visible
22 Jul -3.0 22:40:26 10° SSW 22:43:18 29° SE 22:46:11 10° E visible
23 Jul -3.7 00:16:21 10° WSW 00:19:36 73° NNW 00:22:52 10° ENE visible
23 Jul -3.0 01:53:06 10° WNW 01:56:19 51° N 01:59:30 10° E visible
23 Jul -4.0 03:29:39 10° WNW 03:32:54 75° SSW 03:36:10 10° ESE visible
23 Jul -2.4 21:48:51 10° S 21:51:10 18° SE 21:53:30 10° E visible
23 Jul -4.0 23:24:01 10° WSW 23:27:16 82° SSE 23:30:32 10° ENE visible
24 Jul -3.0 01:00:43 10° W 01:03:54 50° N 01:07:06 10° ENE visible
24 Jul -3.8 02:37:20 10° WNW 02:40:36 79° NNE 02:43:51 10° ESE visible
24 Jul -2.8 04:14:04 10° W 04:16:51 26° SW 04:19:37 10° SSE visible
24 Jul -3.8 22:31:48 10° SW 22:34:59 54° SSE 22:38:11 10° ENE visible
25 Jul -3.2 00:08:17 10° W 00:11:30 55° N 00:14:43 10° ENE visible
25 Jul -3.4 01:45:00 10° WNW 01:48:14 61° NNE 01:51:28 10° E visible
25 Jul -3.5 03:21:33 10° WNW 03:24:39 41° SSW 03:27:45 10° SE visible
25 Jul -3.2 21:39:45 10° SW 21:42:45 34° SSE 21:45:45 10° E visible
25 Jul -3.5 23:15:51 10° W 23:19:06 67° NNW 23:22:21 10° ENE visible
26 Jul -3.1 00:52:37 10° WNW 00:55:49 53° N 00:56:43 38° ENE visible
26 Jul -1.1 02:29:09 10° WNW 02:29:16 11° WNW 02:29:16 11° WNW visible
26 Jul -3.9 22:23:28 10° WSW 22:26:43 88° NNW 22:29:59 10° ENE visible
27 Jul -3.0 00:00:12 10° WNW 00:03:23 50° N 00:05:18 21° ENE visible
27 Jul -1.7 01:36:47 10° WNW 01:37:53 20° WNW 01:37:53 20° WNW visible
27 Jul -3.9 21:31:09 10° SW 21:34:22 63° SSE 21:37:37 10° ENE visible
27 Jul -3.1 23:07:44 10° W 23:10:56 53° N 23:14:08 10° ENE visible
28 Jul -2.9 00:44:24 10° WNW 00:46:53 46° NW 00:46:53 46° NW visible
28 Jul -3.3 22:15:16 10° W 22:18:30 62° NNW 22:21:44 10° ENE visible
28 Jul -3.2 23:52:00 10° WNW 23:55:13 55° N 23:55:59 42° ENE visible
29 Jul -1.0 01:28:32 10° WNW 01:28:37 11° WNW 01:28:37 11° WNW visible
29 Jul -3.7 21:22:48 10° WSW 21:26:03 80° NNW 21:29:20 10° ENE visible
29 Jul -3.0 22:59:34 10° WNW 23:02:45 50° N 23:05:10 16° ENE visible
30 Jul -2.2 00:36:07 10° WNW 00:37:47 28° WNW 00:37:47 28° WNW visible
30 Jul -3.0 22:07:03 10° W 22:10:16 51° N 22:13:28 10° ENE visible
30 Jul -3.7 23:43:42 10° WNW 23:46:58 72° NNE 23:46:59 72° NNE visible
